Weather History for KDET - August, 2014

Change the Weather History Date:

Saturday, August 30, 2014

  Actual Average Record
Temperature  
Mean Temperature 80 °F -  
Max Temperature 88 °F 81 °F 97 °F (1953)
Min Temperature 72 °F 63 °F 49 °F (1976)
Cooling Degree Days 14    
Growing Degree Days 30 (Base 50)    
Moisture  
Dew Point 65 °F    
Average Humidity 62    
Maximum Humidity 73    
Minimum Humidity 51    
Precipitation  
Precipitation 0.00 in - - ()
Sea Level Pressure  
Sea Level Pressure 29.93 in    
Wind  
Wind Speed 10 mph (SSW)    
Max Wind Speed 21 mph    
Max Gust Speed 31 mph    
Visibility 10 miles    
Events      
Averages and records for this station are not official NWS values.
T = Trace of Precipitation, MM = Missing Value Source: NWS Daily Summary

Daily Weather History Graph

Daily Weather History Graph

Search for Another Location

Airport or City:

Trip Planner

Search our weather history database for the weather conditions in past years. The results will help you decide how hot, cold, wet, or windy it might be!

Date:

Astronomy

Aug. 30, 2014 Rise Set
Actual Time 6:55 AM EDT 8:09 PM EDT
Civil Twilight 6:25 AM EDT 8:38 PM EDT
Nautical Twilight 5:51 AM EDT 9:13 PM EDT
Astronomical Twilight 5:14 AM EDT 9:49 PM EDT
Moon 11:48 AM EDT (8/30) 10:36 PM EDT (8/30)
Length of Visible Light 14h 12m
Length of Day
13h 14m
Waxing Crescent, 23% of the Moon is Illuminated
Aug 30
Waxing Crescent
Sep 2
First Quarter
Sep 8
Full
Sep 15
Last Quarter
Sep 24
New

Hourly Weather History & Observations

Time (EDT) Temp. Heat Index Dew Point Humidity Pressure Visibility Wind Dir Wind Speed Gust Speed Precip Events Conditions
12:53 AM 72.0 °F - 62.1 °F 71% 30.04 in 10.0 mi SSE 6.9 mph - N/A   Clear
1:53 AM 72.0 °F - 62.1 °F 71% 30.02 in 10.0 mi South 4.6 mph - N/A   Clear
2:53 AM 72.0 °F - 63.0 °F 73% 29.99 in 10.0 mi South 6.9 mph - N/A   Clear
3:53 AM 73.4 °F - 62.6 °F 69% 29.99 in 10.0 mi South 5.8 mph - N/A   Scattered Clouds
4:53 AM 72.0 °F - 63.0 °F 73% 29.97 in 10.0 mi South 6.9 mph - N/A   Clear
5:53 AM 73.0 °F - 63.0 °F 71% 29.96 in 10.0 mi South 6.9 mph - N/A   Partly Cloudy
6:53 AM 73.0 °F - 64.0 °F 73% 29.97 in 10.0 mi South 5.8 mph - N/A   Clear
7:53 AM 73.9 °F - 64.9 °F 73% 29.97 in 10.0 mi SSW 9.2 mph - N/A   Clear
8:53 AM 77.0 °F - 64.9 °F 66% 29.96 in 10.0 mi SSW 10.4 mph - N/A   Clear
9:53 AM 80.1 °F 82.1 °F 66.0 °F 62% 29.95 in 10.0 mi SSW 11.5 mph - N/A   Clear
10:53 AM 82.0 °F 84.1 °F 66.0 °F 58% 29.95 in 10.0 mi SSW 11.5 mph - N/A   Clear
11:53 AM 84.0 °F 86.5 °F 66.9 °F 56% 29.93 in 10.0 mi South 13.8 mph - N/A   Clear
12:53 PM 86.0 °F 89.4 °F 68.0 °F 55% 29.92 in 10.0 mi SSW 15.0 mph 24.2 mph N/A   Clear
1:53 PM 87.1 °F 89.9 °F 66.9 °F 51% 29.91 in 10.0 mi SW 18.4 mph 25.3 mph N/A   Partly Cloudy
2:53 PM 84.9 °F 86.6 °F 64.9 °F 51% 29.91 in 10.0 mi SW 17.3 mph 31.1 mph N/A   Overcast
3:53 PM 86.0 °F 88.8 °F 66.9 °F 53% 29.89 in 10.0 mi SW 12.7 mph 24.2 mph N/A   Partly Cloudy
4:53 PM 86.0 °F 88.8 °F 66.9 °F 53% 29.87 in 10.0 mi SSW 12.7 mph - N/A   Mostly Cloudy
5:53 PM 86.0 °F 88.2 °F 66.0 °F 51% 29.86 in 10.0 mi SW 13.8 mph 27.6 mph N/A   Mostly Cloudy
6:53 PM 84.9 °F 87.1 °F 66.0 °F 53% 29.85 in 10.0 mi SSW 10.4 mph 20.7 mph N/A   Partly Cloudy
7:53 PM 82.9 °F 85.4 °F 66.9 °F 58% 29.86 in 10.0 mi SSW 11.5 mph - N/A   Scattered Clouds
8:53 PM 82.0 °F 84.5 °F 66.9 °F 60% 29.88 in 10.0 mi SSW 11.5 mph - N/A   Clear
9:53 PM 81.0 °F 83.8 °F 68.0 °F 65% 29.90 in 10.0 mi SSW 20.7 mph 27.6 mph N/A   Clear
10:53 PM 80.6 °F 83.2 °F 68.0 °F 65% 29.91 in 10.0 mi SW 18.4 mph 21.9 mph N/A   Scattered Clouds
11:53 PM 79.0 °F - 68.0 °F 69% 29.92 in 10.0 mi SW 18.4 mph 28.8 mph N/A   Partly Cloudy